Location: Alsip
(41.6689°N, 87.7387°W)
Time: 07:38:14
(UTC+00:00)

XW-2B - Pass Details

Date: 21 October 2021
Orbit: 504 x 522 km, 97.5° (Epoch: 30 November)

Event Time Altitude Azimuth Distance (km) Brightness Sun altitude
Rises 11:18:23 0° 23° (NNE) 2,614 ? -10.4°
Reaches altitude 10° 11:20:40 10° 34° (NE) 1,724 ? -10.0°
Maximum altitude 11:23:58 30° 97° (E) 935 ? -9.4°
Drops below altitude 10° 11:27:14 10° 159° (SSE) 1,715 ? -8.7°
Sets 11:29:30 0° 171° (S) 2,597 ? -8.3°
